User: anonymous   Login
Location: *
(50.9167°S, 179.4000°W)
Time: 17:50:13
(UTC+00:00)
Language:

Meteor 1-28 Rocket - Orbit

View from above orbital plane
View from above orbital plane
View from above satellite
View from above satellite

Ground track
Ground track

The orbit data is extracted from the following two-line orbital elements,

1 10114U 77057B   24149.18617317  .00007551  00000-0  28168-3 0  9993
2 10114  97.5076 293.3657 0012065  92.0107 268.2514 15.27639755568648
Epoch (UTC): 28 May 2024 04:28:05
Eccentricity: 0.0012065
inclination: 97.5076°
perigee height: 474 km
apogee height: 491 km
right ascension of ascending node: 293.3657°
argument of perigee: 92.0107°
revolutions per day: 15.27639755
mean anomaly at epoch: 268.2514°
orbit number at epoch: 56864

The dashed part of the orbit path shows where the satellite is in the earth's shadow,  

DLR